MDT,Max TemperatureF,Mean TemperatureF,Min TemperatureF,Max Dew PointF,MeanDew PointF,Min DewpointF,Max Humidity, Mean Humidity, Min Humidity, Max Sea Level PressureIn, Mean Sea Level PressureIn, Min Sea Level PressureIn, Max VisibilityMiles, Mean VisibilityMiles, Min VisibilityMiles, Max Wind SpeedMPH, Mean Wind SpeedMPH, Max Gust SpeedMPH,PrecipitationIn, CloudCover, Events, WindDirDegrees
2012-10-1,63,51,40,42,36,33,83,56,33,30.42,30.34,30.29,10,10,10,21,11,28,0.00,2,Rain,343
2012-10-2,78,58,40,39,29,19,81,42,12,30.29,30.13,30.06,10,10,10,17,7,20,0.00,0,,257
2012-10-3,81,58,34,33,25,18,81,34,10,30.26,30.08,29.98,10,10,10,32,11,46,0.00,0,,326
2012-10-4,49,39,29,29,24,20,78,58,37,30.35,30.29,30.24,10,10,10,26,15,38,0.00,2,,172
2012-10-5,39,34,28,32,29,25,99,82,59,30.28,30.22,30.16,10,9,1,18,8,24,0.00,8,Rain-Snow,149
2012-10-6,39,32,27,32,28,24,100,89,62,30.27,30.23,30.18,10,6,0,20,9,26,0.00,8,Fog-Snow,106
2012-10-7,52,38,25,27,19,8,96,57,18,30.24,30.15,30.09,10,10,10,13,6,20,0.00,2,,226
2012-10-8,66,46,27,23,14,2,73,35,11,30.11,30.04,29.96,10,10,10,18,6,23,0.00,0,,239
2012-10-9,59,47,35,34,24,2,91,47,13,30.26,30.10,29.98,10,10,7,20,11,24,0.00,2,,34
2012-10-10,61,48,35,35,33,31,92,66,33,30.25,30.17,30.09,10,10,7,13,10,20,0.00,4,,211
2012-10-11,73,56,39,33,28,20,75,38,14,30.33,30.19,30.10,10,10,10,20,10,25,0.00,0,,333
2012-10-12,66,48,31,46,36,30,97,78,33,30.32,30.15,30.01,10,10,10,20,7,29,0.00,1,Rain-Thunderstorm,229
2012-10-13,52,44,36,40,30,20,79,56,33,30.18,30.00,29.93,10,10,5,28,13,43,0.00,4,Rain,325
2012-10-14,,,,,,,,,,,,,,,,,,,0.00,,,-1
2012-10-15,75,60,45,27,21,16,49,22,12,30.16,30.07,30.02,10,10,10,13,7,18,0.00,0,,233
2012-10-16,73,60,47,38,22,15,59,24,13,30.04,29.87,29.71,10,10,10,24,11,41,0.00,0,Rain,262
2012-10-17,56,46,37,39,12,-2,76,31,10,30.05,29.90,29.78,10,10,10,25,15,37,0.00,0,Rain,341
2012-10-18,61,44,27,15,11,4,49,30,13,30.19,30.11,30.06,10,10,10,20,7,31,0.00,0,,284
2012-10-19,72,50,30,20,16,13,55,29,12,30.16,30.06,29.98,10,10,10,15,7,22,0.00,0,,264
2012-10-20,75,59,43,18,12,7,33,18,8,30.00,29.92,29.84,10,10,10,22,7,28,0.00,0,,260
2012-10-21,69,60,52,15,9,6,20,15,11,29.95,29.90,29.87,10,10,10,22,15,28,0.00,0,,305
2012-10-22,67,46,43,33,32,32,66,59,50,29.91,29.89,29.86,10,10,10,12,8,16,0.00,0,,83
2012-10-23,75,56,37,31,22,17,76,29,12,29.92,29.87,29.83,10,10,10,24,9,33,0.00,0,,234
2012-10-24,57,42,28,36,31,26,95,65,35,29.97,29.87,29.75,10,9,0,31,16,41,0.00,2,Rain-Snow,1
2012-10-25,32,28,23,28,25,20,99,87,74,30.24,30.13,29.94,10,8,1,26,15,36,0.00,7,Snow,179
2012-10-26,37,30,23,26,24,20,100,84,50,30.40,30.29,30.18,10,6,0,15,10,22,0.00,7,Fog-Snow,178
2012-10-27,44,32,21,24,20,14,99,65,31,30.19,30.13,30.09,10,8,0,12,7,20,0.00,1,Fog,214
2012-10-28,57,40,24,28,22,18,79,56,27,30.18,30.14,30.08,10,10,5,13,5,16,0.00,0,,238
2012-10-29,65,48,32,30,24,20,69,46,18,30.23,30.20,30.18,10,10,10,13,7,20,0.00,0,,272
2012-10-30,65,50,35,27,24,22,64,38,20,30.26,30.22,30.18,10,10,10,14,8,20,0.00,0,,294
2012-10-31,69,53,37,27,21,15,62,36,13,30.26,30.23,30.20,10,10,10,13,7,21,0.00,0,,335